| time (UTC) | temp C | wind direction | speed KPH | gust KPH | rain 1hr cm | rain 24hr cm | rain mn cm | humidity % | barometer mb |
| 20260506112530 | 7 | 248 | 1.6 | 4.8 | 0.00 | 0.00 | 0.00 | 94 | 1010.7 |
| 20260506112029 | 7 | 248 | 1.6 | 4.8 | 0.00 | 0.00 | 0.00 | 94 | 1010.5 |
| 20260506111538 | 7 | 284 | 1.6 | 4.8 | 0.00 | 0.00 | 0.00 | 94 | 1010.4 |
| 20260506111033 | 6 | 284 | 1.6 | 4.8 | 0.00 | 0.00 | 0.00 | 94 | 1010.1 |
| 20260506110532 | 6 | 284 | 1.6 | 6.4 | 0.00 | 0.00 | 0.00 | 94 | 1010.1 |
| 20260506110045 | 6 | 284 | 3.2 | 6.4 | 0.00 | 0.00 | 0.00 | 94 | 1010.2 |
| 20260506105529 | 6 | 0 | 0.0 | 6.4 | 0.00 | 0.00 | 0.00 | 94 | 1010.1 |
| 20260506105032 | 6 | 284 | 3.2 | 11.3 | 0.00 | 0.00 | 0.00 | 94 | 1010.0 |
| 20260506104548 | 6 | 284 | 4.8 | 11.3 | 0.00 | 0.00 | 0.00 | 94 | 1010.1 |
| 20260506104028 | 6 | 297 | 1.6 | 8.0 | 0.00 | 0.00 | 0.00 | 94 | 1009.9 |
| 20260506103529 | 6 | 291 | 0.0 | 11.3 | 0.00 | 0.00 | 0.00 | 94 | 1009.4 |
| 20260506103042 | 6 | 292 | 4.8 | 11.3 | 0.00 | 0.00 | 0.00 | 94 | 1009.7 |
| 20260506102529 | 6 | 325 | 3.2 | 17.7 | 0.00 | 0.00 | 0.00 | 94 | 1009.5 |
| 20260506102029 | 6 | 315 | 3.2 | 17.7 | 0.00 | 0.00 | 0.00 | 94 | 1009.5 |
| 20260506101546 | 6 | 305 | 4.8 | 17.7 | 0.00 | 0.00 | 0.00 | 94 | 1009.8 |
| 20260506101028 | 6 | 304 | 6.4 | 14.5 | 0.00 | 0.00 | 0.00 | 94 | 1010.0 |
| 20260506100534 | 6 | 302 | 4.8 | 11.3 | 0.00 | 0.00 | 0.00 | 94 | 1009.8 |
| 20260506100040 | 6 | 298 | 4.8 | 8.0 | 0.00 | 0.00 | 0.00 | 94 | 1009.5 |
| 20260506095528 | 6 | 350 | 1.6 | 4.8 | 0.00 | 0.00 | 0.00 | 94 | 1009.1 |
| 20260506095028 | 6 | 350 | 1.6 | 3.2 | 0.00 | 0.00 | 0.00 | 94 | 1008.8 |
| 20260506094554 | 6 | 350 | 1.6 | 4.8 | 0.00 | 0.00 | 0.00 | 94 | 1008.7 |
| 20260506094031 | 6 | 350 | 0.0 | 4.8 | 0.00 | 0.00 | 0.00 | 94 | 1008.7 |
| 20260506093528 | 6 | 350 | 1.6 | 8.0 | 0.00 | 0.00 | 0.00 | 94 | 1009.0 |
| 20260506093044 | 6 | 351 | 3.2 | 8.0 | 0.00 | 0.00 | 0.00 | 94 | 1009.1 |
| 20260506092528 | 6 | 355 | 1.6 | 6.4 | 0.00 | 0.00 | 0.00 | 94 | 1009.3 |
| 20260506092029 | 7 | 336 | 3.2 | 9.7 | 0.00 | 0.00 | 0.00 | 94 | 1009.5 |
| 20260506091543 | 7 | 338 | 3.2 | 12.9 | 0.00 | 0.00 | 0.00 | 94 | 1009.9 |
| 20260506091030 | 7 | 302 | 4.8 | 12.9 | 0.00 | 0.00 | 0.00 | 94 | 1010.0 |
| 20260506090528 | 7 | 313 | 4.8 | 12.9 | 0.00 | 0.00 | 0.00 | 94 | 1010.0 |
| 20260506090041 | 7 | 290 | 3.2 | 11.3 | 0.00 | 0.00 | 0.00 | 94 | 1010.0 |
| 20260506085528 | 7 | 286 | 4.8 | 11.3 | 0.00 | 0.00 | 0.00 | 94 | 1010.1 |
| 20260506085028 | 7 | 296 | 4.8 | 11.3 | 0.00 | 0.00 | 0.00 | 94 | 1009.8 |
| 20260506084543 | 7 | 288 | 3.2 | 9.7 | 0.00 | 0.00 | 0.00 | 94 | 1009.7 |
| 20260506084028 | 7 | 285 | 3.2 | 9.7 | 0.00 | 0.00 | 0.00 | 94 | 1009.7 |
| 20260506083528 | 7 | 329 | 3.2 | 4.8 | 0.00 | 0.00 | 0.00 | 94 | 1009.5 |
| 20260506083041 | 7 | 331 | 1.6 | 4.8 | 0.00 | 0.00 | 0.00 | 94 | 1009.4 |
| 20260506082532 | 7 | 331 | 1.6 | 4.8 | 0.00 | 0.00 | 0.00 | 94 | 1009.3 |
| 20260506082032 | 7 | 333 | 1.6 | 4.8 | 0.00 | 0.00 | 0.00 | 94 | 1009.5 |
| 20260506081547 | 7 | 334 | 1.6 | 4.8 | 0.00 | 0.00 | 0.00 | 94 | 1009.5 |
| 20260506081031 | 7 | 334 | 1.6 | 11.3 | 0.00 | 0.00 | 0.00 | 94 | 1009.6 |
| 20260506080527 | 7 | 306 | 3.2 | 11.3 | 0.00 | 0.00 | 0.00 | 94 | 1009.6 |
| 20260506073528 | 7 | 316 | 1.6 | 6.4 | 0.00 | 0.00 | 0.00 | 93 | 1009.7 |
| 20260506073042 | 7 | 316 | 1.6 | 6.4 | 0.00 | 0.00 | 0.00 | 93 | 1009.6 |
| 20260506072531 | 7 | 316 | 3.2 | 6.4 | 0.00 | 0.00 | 0.00 | 93 | 1009.5 |
| 20260506072029 | 7 | 309 | 1.6 | 6.4 | 0.00 | 0.00 | 0.00 | 93 | 1009.6 |
| 20260506071545 | 7 | 321 | 3.2 | 6.4 | 0.00 | 0.00 | 0.00 | 94 | 1009.6 |
| 20260506071028 | 7 | 325 | 3.2 | 6.4 | 0.00 | 0.00 | 0.00 | 93 | 1009.6 |
| 20260506070528 | 7 | 12 | 1.6 | 4.8 | 0.00 | 0.00 | 0.00 | 93 | 1009.5 |
| 20260506062028 | 7 | 14 | 3.2 | 9.7 | 0.00 | 0.00 | 0.00 | 93 | 1009.5 |
| 20260506061542 | 7 | 5 | 4.8 | 9.7 | 0.00 | 0.00 | 0.00 | 93 | 1009.5 |
| 20260506061031 | 7 | 10 | 3.2 | 8.0 | 0.00 | 0.00 | 0.00 | 93 | 1009.5 |
| 20260506060531 | 7 | 11 | 4.8 | 11.3 | 0.00 | 0.00 | 0.00 | 93 | 1009.7 |
| 20260506051027 | 7 | 19 | 3.2 | 8.0 | 0.00 | 0.00 | 0.00 | 93 | 1009.8 |
| 20260506050528 | 7 | 14 | 3.2 | 12.9 | 0.00 | 0.00 | 0.00 | 93 | 1009.8 |
| 20260506045027 | 7 | 17 | 8.0 | 16.1 | 0.00 | 0.00 | 0.00 | 93 | 1009.7 |
| 20260506044541 | 7 | 360 | 8.0 | 16.1 | 0.00 | 0.00 | 0.00 | 93 | 1009.8 |
| 20260506044028 | 7 | 23 | 6.4 | 14.5 | 0.00 | 0.00 | 0.00 | 93 | 1009.7 |
| 20260506043528 | 7 | 5 | 8.0 | 14.5 | 0.00 | 0.00 | 0.00 | 93 | 1009.8 |
| 20260506043046 | 7 | 5 | 6.4 | 17.7 | 0.00 | 0.00 | 0.00 | 93 | 1009.9 |
| 20260506042528 | 7 | 17 | 8.0 | 17.7 | 0.00 | 0.00 | 0.00 | 93 | 1009.9 |
| 20260506042028 | 8 | 360 | 9.7 | 16.1 | 0.00 | 0.00 | 0.00 | 93 | 1010.0 |
| 20260506041542 | 8 | 340 | 8.0 | 16.1 | 0.00 | 0.00 | 0.00 | 94 | 1010.0 |
| 20260506041027 | 8 | 355 | 9.7 | 17.7 | 0.00 | 0.00 | 0.00 | 93 | 1010.0 |
| 20260506040530 | 8 | 344 | 8.0 | 17.7 | 0.00 | 0.00 | 0.00 | 93 | 1010.1 |
| 20260506040044 | 8 | 339 | 11.3 | 17.7 | 0.00 | 0.00 | 0.00 | 93 | 1010.1 |
| 20260506035528 | 8 | 5 | 6.4 | 14.5 | 0.00 | 0.00 | 0.00 | 94 | 1010.1 |
| 20260506035029 | 8 | 355 | 4.8 | 9.7 | 0.00 | 0.00 | 0.00 | 94 | 1010.2 |
| 20260506034541 | 8 | 350 | 4.8 | 9.7 | 0.00 | 0.00 | 0.00 | 94 | 1010.1 |
| 20260506034031 | 8 | 347 | 3.2 | 6.4 | 0.00 | 0.00 | 0.00 | 94 | 1010.3 |
| 20260506033528 | 8 | 328 | 1.6 | 6.4 | 0.00 | 0.00 | 0.00 | 94 | 1010.4 |
| 20260506033040 | 8 | 327 | 1.6 | 6.4 | 0.00 | 0.00 | 0.00 | 94 | 1010.5 |
| 20260506032528 | 8 | 325 | 3.2 | 6.4 | 0.00 | 0.00 | 0.00 | 94 | 1010.5 |
| 20260506032031 | 8 | 324 | 3.2 | 6.4 | 0.00 | 0.00 | 0.00 | 94 | 1010.6 |
| 20260506031550 | 8 | 311 | 3.2 | 6.4 | 0.00 | 0.00 | 0.00 | 94 | 1010.6 |
| 20260506031028 | 8 | 355 | 3.2 | 6.4 | 0.00 | 0.00 | 0.00 | 94 | 1010.8 |
| 20260506030527 | 9 | 344 | 1.6 | 4.8 | 0.00 | 0.00 | 0.00 | 94 | 1010.8 |
| 20260506030043 | 9 | 344 | 0.0 | 8.0 | 0.00 | 0.00 | 0.00 | 94 | 1010.6 |
| 20260506025527 | 9 | 344 | 3.2 | 8.0 | 0.00 | 0.00 | 0.00 | 94 | 1010.6 |
| 20260506025030 | 9 | 355 | 3.2 | 6.4 | 0.00 | 0.00 | 0.00 | 94 | 1010.8 |
| 20260506024547 | 9 | 355 | 1.6 | 8.0 | 0.00 | 0.00 | 0.00 | 94 | 1010.8 |
| 20260506024028 | 9 | 355 | 3.2 | 8.0 | 0.00 | 0.00 | 0.00 | 94 | 1010.6 |
| 20260506023529 | 9 | 355 | 1.6 | 6.4 | 0.00 | 0.00 | 0.00 | 94 | 1010.7 |
| 20260506023047 | 9 | 355 | 1.6 | 4.8 | 0.00 | 0.00 | 0.00 | 94 | 1010.7 |
| 20260506022530 | 9 | 0 | 0.0 | 1.6 | 0.00 | 0.00 | 0.00 | 94 | 1010.7 |
| 20260506022027 | 9 | 0 | 0.0 | 3.2 | 0.00 | 0.00 | 0.00 | 94 | 1010.6 |
| 20260506021544 | 9 | 355 | 0.0 | 6.4 | 0.00 | 0.00 | 0.00 | 94 | 1010.6 |
| 20260506021028 | 9 | 355 | 1.6 | 6.4 | 0.00 | 0.00 | 0.00 | 94 | 1010.6 |
| 20260506020530 | 9 | 355 | 3.2 | 6.4 | 0.00 | 0.00 | 0.00 | 94 | 1010.4 |
| 20260506020040 | 9 | 360 | 4.8 | 6.4 | 0.00 | 0.00 | 0.00 | 94 | 1010.2 |
| 20260506015532 | 9 | 360 | 3.2 | 6.4 | 0.00 | 0.00 | 0.00 | 94 | 1010.1 |
| 20260506015028 | 9 | 360 | 3.2 | 8.0 | 0.00 | 0.00 | 0.00 | 94 | 1010.0 |
| 20260506014546 | 9 | 5 | 3.2 | 11.3 | 0.00 | 0.00 | 0.00 | 94 | 1010.1 |
| 20260506014027 | 9 | 5 | 4.8 | 14.5 | 0.00 | 0.00 | 0.00 | 94 | 1010.0 |
| 20260506013529 | 9 | 22 | 6.4 | 14.5 | 0.00 | 0.00 | 0.00 | 94 | 1009.9 |
| 20260506013041 | 9 | 21 | 4.8 | 11.3 | 0.00 | 0.00 | 0.00 | 93 | 1009.9 |
| 20260506012527 | 9 | 22 | 6.4 | 11.3 | 0.00 | 0.00 | 0.00 | 94 | 1009.9 |
| 20260506012030 | 9 | 28 | 4.8 | 8.0 | 0.00 | 0.00 | 0.00 | 94 | 1009.9 |
| 20260506011544 | 9 | 24 | 3.2 | 11.3 | 0.00 | 0.00 | 0.00 | 94 | 1009.9 |
| 20260506011031 | 9 | 346 | 6.4 | 12.9 | 0.00 | 0.00 | 0.00 | 94 | 1010.0 |
| 20260506010528 | 9 | 360 | 4.8 | 12.9 | 0.00 | 0.00 | 0.00 | 93 | 1010.1 |
| 20260506010046 | 9 | 352 | 6.4 | 12.9 | 0.00 | 0.00 | 0.00 | 93 | 1009.9 |
| 20260506005528 | 10 | 5 | 4.8 | 11.3 | 0.00 | 0.00 | 0.00 | 93 | 1010.0 |
| 20260506005027 | 10 | 342 | 4.8 | 12.9 | 0.00 | 0.00 | 0.00 | 93 | 1010.1 |
| 20260506004540 | 10 | 360 | 6.4 | 12.9 | 0.00 | 0.00 | 0.00 | 93 | 1010.0 |
| 20260506004028 | 10 | 342 | 6.4 | 12.9 | 0.00 | 0.00 | 0.00 | 93 | 1009.8 |
| 20260506003529 | 10 | 355 | 6.4 | 9.7 | 0.00 | 0.00 | 0.00 | 93 | 1009.8 |
| 20260506003041 | 10 | 352 | 4.8 | 9.7 | 0.00 | 0.00 | 0.00 | 93 | 1009.7 |
| 20260506002527 | 10 | 349 | 4.8 | 14.5 | 0.00 | 0.00 | 0.00 | 93 | 1009.8 |
| 20260506002027 | 10 | 5 | 6.4 | 14.5 | 0.00 | 0.00 | 0.00 | 93 | 1009.7 |
| 20260506001546 | 10 | 46 | 6.4 | 14.5 | 0.00 | 0.00 | 0.00 | 93 | 1009.5 |
| 20260506001028 | 10 | 5 | 6.4 | 12.9 | 0.00 | 0.00 | 0.00 | 93 | 1009.5 |
| 20260506000528 | 10 | 32 | 4.8 | 9.7 | 0.00 | 0.00 | 0.00 | 93 | 1009.2 |
| 20260506000044 | 10 | 34 | 4.8 | 9.7 | 0.00 | 0.00 | 0.00 | 93 | 1009.3 |
| 20260505235530 | 10 | 36 | 1.6 | 9.7 | 0.00 | 0.00 | 0.00 | 93 | 1009.2 |
| 20260505235030 | 10 | 41 | 3.2 | 9.7 | 0.00 | 0.00 | 0.00 | 93 | 1009.2 |
| 20260505234548 | 10 | 41 | 3.2 | 9.7 | 0.00 | 0.00 | 0.00 | 93 | 1009.4 |
| 20260505234031 | 10 | 26 | 3.2 | 8.0 | 0.00 | 0.00 | 0.00 | 93 | 1009.2 |
| 20260505233527 | 10 | 17 | 4.8 | 9.7 | 0.00 | 0.00 | 0.00 | 93 | 1009.4 |
| 20260505233042 | 10 | 350 | 3.2 | 9.7 | 0.00 | 0.00 | 0.00 | 93 | 1009.4 |
| 20260505232527 | 10 | 346 | 4.8 | 9.7 | 0.00 | 0.00 | 0.00 | 93 | 1009.5 |
| 20260505232027 | 10 | 355 | 4.8 | 12.9 | 0.00 | 0.00 | 0.00 | 93 | 1009.6 |
| 20260505231551 | 10 | 13 | 6.4 | 12.9 | 0.00 | 0.00 | 0.00 | 93 | 1009.7 |
| 20260505231027 | 10 | 19 | 3.2 | 16.1 | 0.00 | 0.00 | 0.00 | 93 | 1009.5 |
| 20260505230527 | 10 | 355 | 4.8 | 16.1 | 0.00 | 0.00 | 0.00 | 92 | 1009.5 |
| 20260505230053 | 10 | 11 | 4.8 | 12.9 | 0.00 | 0.00 | 0.00 | 92 | 1009.7 |
| 20260505225528 | 10 | 344 | 3.2 | 12.9 | 0.00 | 0.00 | 0.00 | 92 | 1009.8 |
| 20260505225030 | 10 | 304 | 4.8 | 19.3 | 0.00 | 0.00 | 0.00 | 92 | 1009.9 |
| 20260505224544 | 10 | 323 | 11.3 | 19.3 | 0.00 | 0.00 | 0.00 | 92 | 1009.9 |
| 20260505224027 | 11 | 315 | 9.7 | 17.7 | 0.00 | 0.00 | 0.00 | 92 | 1010.0 |
| 20260505223530 | 11 | 328 | 4.8 | 14.5 | 0.00 | 0.00 | 0.00 | 92 | 1010.0 |
| 20260505223041 | 11 | 300 | 6.4 | 20.9 | 0.00 | 0.00 | 0.00 | 91 | 1010.1 |
| 20260505222527 | 11 | 306 | 4.8 | 20.9 | 0.00 | 0.00 | 0.00 | 91 | 1009.8 |
| 20260505222028 | 12 | 345 | 8.0 | 19.3 | 0.00 | 0.00 | 0.00 | 91 | 1009.7 |
| 20260505221542 | 13 | 302 | 8.0 | 19.3 | 0.00 | 0.00 | 0.00 | 92 | 1009.8 |
| 20260505221034 | 13 | 329 | 4.8 | 8.0 | 0.00 | 0.00 | 0.00 | 93 | 1009.1 |
| 20260505220528 | 13 | 342 | 3.2 | 6.4 | 0.00 | 0.00 | 0.00 | 93 | 1009.0 |
| 20260505220047 | 13 | 344 | 1.6 | 6.4 | 0.00 | 0.00 | 0.00 | 93 | 1009.1 |
| 20260505215529 | 13 | 307 | 1.6 | 4.8 | 0.00 | 0.00 | 0.00 | 92 | 1009.0 |
| 20260505215028 | 13 | 307 | 3.2 | 6.4 | 0.00 | 0.00 | 0.00 | 93 | 1009.0 |
| 20260505214543 | 13 | 298 | 1.6 | 6.4 | 0.00 | 0.00 | 0.00 | 93 | 1008.9 |
| 20260505214028 | 13 | 252 | 1.6 | 4.8 | 0.00 | 0.00 | 0.00 | 93 | 1009.0 |
| 20260505213527 | 13 | 0 | 1.6 | 4.8 | 0.00 | 0.00 | 0.00 | 93 | 1008.9 |
| 20260505213052 | 13 | 0 | 0.0 | 4.8 | 0.00 | 0.00 | 0.00 | 93 | 1008.9 |
| 20260505212526 | 13 | 249 | 1.6 | 4.8 | 0.00 | 0.00 | 0.00 | 92 | 1009.0 |
| 20260505212028 | 13 | 249 | 0.0 | 4.8 | 0.00 | 0.00 | 0.00 | 92 | 1008.9 |
| 20260505211544 | 13 | 250 | 1.6 | 6.4 | 0.00 | 0.00 | 0.00 | 92 | 1009.0 |
| 20260505211028 | 13 | 250 | 1.6 | 6.4 | 0.00 | 0.00 | 0.00 | 92 | 1008.9 |
| 20260505210527 | 13 | 261 | 3.2 | 6.4 | 0.00 | 0.00 | 0.00 | 92 | 1009.0 |
| 20260505210040 | 13 | 0 | 3.2 | 11.3 | 0.00 | 0.00 | 0.00 | 92 | 1009.0 |
| 20260505205528 | 13 | 281 | 3.2 | 11.3 | 0.00 | 0.00 | 0.00 | 92 | 1009.0 |
| 20260505205028 | 13 | 234 | 1.6 | 6.4 | 0.00 | 0.00 | 0.00 | 92 | 1009.2 |
| 20260505204538 | 13 | 232 | 0.0 | 6.4 | 0.00 | 0.00 | 0.00 | 92 | 1009.2 |
| 20260505204028 | 13 | 0 | 1.6 | 9.7 | 0.00 | 0.00 | 0.00 | 91 | 1009.2 |
| 20260505203528 | 13 | 261 | 4.8 | 12.9 | 0.00 | 0.00 | 0.00 | 91 | 1009.1 |
| 20260505203045 | 13 | 250 | 3.2 | 12.9 | 0.00 | 0.00 | 0.00 | 91 | 1009.2 |
| 20260505202528 | 14 | 228 | 3.2 | 8.0 | 0.00 | 0.00 | 0.00 | 91 | 1009.3 |
| 20260505202028 | 14 | 237 | 1.6 | 4.8 | 0.00 | 0.00 | 0.00 | 91 | 1009.3 |
| 20260505201547 | 14 | 257 | 1.6 | 8.0 | 0.00 | 0.00 | 0.00 | 91 | 1009.4 |
| 20260505201031 | 14 | 250 | 1.6 | 8.0 | 0.00 | 0.00 | 0.00 | 90 | 1009.1 |
| 20260505200528 | 14 | 244 | 1.6 | 4.8 | 0.00 | 0.00 | 0.00 | 90 | 1009.0 |
| 20260505200044 | 14 | 244 | 0.0 | 6.4 | 0.00 | 0.00 | 0.00 | 90 | 1009.1 |
| 20260505195531 | 14 | 246 | 0.0 | 6.4 | 0.00 | 0.00 | 0.00 | 90 | 1009.0 |
| 20260505195027 | 14 | 246 | 1.6 | 4.8 | 0.00 | 0.00 | 0.00 | 90 | 1009.4 |
| 20260505194546 | 14 | 248 | 1.6 | 4.8 | 0.00 | 0.00 | 0.00 | 89 | 1009.2 |
| 20260505194028 | 14 | 248 | 0.0 | 6.4 | 0.00 | 0.00 | 0.00 | 89 | 1009.1 |
| 20260505193527 | 14 | 0 | 1.6 | 9.7 | 0.00 | 0.00 | 0.00 | 89 | 1009.5 |
| 20260505193040 | 15 | 247 | 3.2 | 14.5 | 0.00 | 0.00 | 0.00 | 89 | 1009.6 |
| 20260505192530 | 15 | 257 | 4.8 | 14.5 | 0.00 | 0.00 | 0.00 | 88 | 1009.5 |
| 20260505192028 | 15 | 254 | 8.0 | 14.5 | 0.00 | 0.00 | 0.00 | 88 | 1009.4 |
| 20260505191552 | 15 | 263 | 6.4 | 16.1 | 0.00 | 0.00 | 0.00 | 87 | 1009.5 |
| 20260505191031 | 15 | 265 | 8.0 | 16.1 | 0.00 | 0.00 | 0.00 | 86 | 1009.6 |
| 20260505190527 | 15 | 266 | 6.4 | 14.5 | 0.00 | 0.00 | 0.00 | 86 | 1009.6 |
| 20260505190048 | 15 | 267 | 8.0 | 14.5 | 0.00 | 0.00 | 0.00 | 84 | 1009.5 |
| 20260505185528 | 15 | 258 | 6.4 | 14.5 | 0.00 | 0.00 | 0.00 | 84 | 1009.3 |
| 20260505185029 | 16 | 273 | 4.8 | 19.3 | 0.00 | 0.00 | 0.00 | 83 | 1009.3 |
| 20260505184543 | 16 | 269 | 9.7 | 20.9 | 0.00 | 0.00 | 0.00 | 81 | 1009.5 |
| 20260505184027 | 16 | 245 | 9.7 | 20.9 | 0.00 | 0.00 | 0.00 | 79 | 1009.7 |
| 20260505183526 | 17 | 257 | 11.3 | 20.9 | 0.00 | 0.00 | 0.00 | 77 | 1009.6 |
| 20260505183042 | 17 | 264 | 4.8 | 14.5 | 0.00 | 0.00 | 0.00 | 76 | 1009.6 |
| 20260505182530 | 17 | 253 | 6.4 | 14.5 | 0.00 | 0.00 | 0.00 | 76 | 1009.5 |
| 20260505182026 | 17 | 257 | 3.2 | 12.9 | 0.00 | 0.00 | 0.00 | 77 | 1009.4 |
| 20260505181541 | 17 | 257 | 6.4 | 12.9 | 0.00 | 0.00 | 0.00 | 77 | 1009.4 |
| 20260505181027 | 17 | 246 | 4.8 | 16.1 | 0.00 | 0.00 | 0.00 | 77 | 1009.3 |
| 20260505180528 | 17 | 268 | 4.8 | 19.3 | 0.00 | 0.00 | 0.00 | 76 | 1009.3 |
| 20260505180053 | 17 | 281 | 9.7 | 19.3 | 0.00 | 0.00 | 0.00 | 76 | 1009.4 |
| 20260505175529 | 17 | 242 | 8.0 | 24.1 | 0.00 | 0.00 | 0.00 | 76 | 1009.4 |
| 20260505175028 | 17 | 270 | 9.7 | 24.1 | 0.00 | 0.00 | 0.00 | 76 | 1009.2 |
| 20260505174552 | 17 | 261 | 12.9 | 24.1 | 0.00 | 0.00 | 0.00 | 75 | 1009.1 |
| 20260505174027 | 17 | 255 | 9.7 | 22.5 | 0.00 | 0.00 | 0.00 | 75 | 1009.2 |
| 20260505173529 | 17 | 271 | 12.9 | 22.5 | 0.00 | 0.00 | 0.00 | 74 | 1009.3 |
| 20260505173046 | 17 | 282 | 12.9 | 22.5 | 0.00 | 0.00 | 0.00 | 74 | 1009.3 |
| 20260505172526 | 17 | 208 | 9.7 | 19.3 | 0.00 | 0.00 | 0.00 | 75 | 1009.2 |
| 20260505172028 | 17 | 243 | 3.2 | 22.5 | 0.00 | 0.00 | 0.00 | 76 | 1009.3 |
| 20260505171547 | 17 | 230 | 8.0 | 22.5 | 0.00 | 0.00 | 0.00 | 74 | 1009.3 |
| 20260505171028 | 17 | 290 | 9.7 | 22.5 | 0.00 | 0.00 | 0.00 | 73 | 1009.4 |
| 20260505170526 | 17 | 300 | 9.7 | 24.1 | 0.00 | 0.00 | 0.00 | 73 | 1009.2 |
| 20260505170039 | 17 | 249 | 9.7 | 25.7 | 0.00 | 0.00 | 0.00 | 73 | 1009.2 |
| 20260505165528 | 17 | 257 | 11.3 | 27.4 | 0.00 | 0.00 | 0.00 | 72 | 1009.4 |
| 20260505165025 | 17 | 207 | 11.3 | 27.4 | 0.00 | 0.00 | 0.00 | 72 | 1009.3 |
| 20260505164549 | 17 | 227 | 11.3 | 27.4 | 0.00 | 0.00 | 0.00 | 72 | 1009.2 |
| 20260505164031 | 18 | 263 | 11.3 | 29.0 | 0.00 | 0.00 | 0.00 | 71 | 1009.1 |
| 20260505163529 | 18 | 232 | 14.5 | 29.0 | 0.00 | 0.00 | 0.00 | 71 | 1009.2 |
| 20260505163044 | 17 | 217 | 9.7 | 29.0 | 0.00 | 0.00 | 0.00 | 73 | 1009.0 |
| 20260505162526 | 17 | 251 | 12.9 | 29.0 | 0.00 | 0.00 | 0.00 | 72 | 1009.1 |
| 20260505162028 | 18 | 258 | 9.7 | 22.5 | 0.00 | 0.00 | 0.00 | 71 | 1009.2 |
| 20260505161550 | 18 | 210 | 11.3 | 29.0 | 0.00 | 0.00 | 0.00 | 70 | 1009.1 |
| 20260505161029 | 18 | 253 | 12.9 | 29.0 | 0.00 | 0.00 | 0.00 | 69 | 1009.1 |
| 20260505160527 | 18 | 246 | 11.3 | 27.4 | 0.00 | 0.00 | 0.00 | 69 | 1009.1 |
| 20260505153048 | 19 | 206 | 11.3 | 33.8 | 0.00 | 0.00 | 0.00 | 70 | 1008.3 |
| 20260505152525 | 19 | 209 | 16.1 | 32.2 | 0.00 | 0.00 | 0.00 | 68 | 1008.1 |
| 20260505152028 | 19 | 215 | 11.3 | 30.6 | 0.00 | 0.00 | 0.00 | 71 | 1007.9 |
| 20260505151546 | 19 | 209 | 12.9 | 32.2 | 0.00 | 0.00 | 0.00 | 69 | 1007.8 |
| 20260505151028 | 18 | 250 | 19.3 | 32.2 | 0.00 | 0.00 | 0.00 | 70 | 1007.8 |
| 20260505150528 | 18 | 214 | 12.9 | 30.6 | 0.00 | 0.00 | 0.00 | 71 | 1007.7 |
| 20260505140528 | 18 | 203 | 8.0 | 30.6 | 0.00 | 0.00 | 0.00 | 74 | 1007.9 |
| 20260505125027 | 15 | 196 | 9.7 | 17.7 | 0.00 | 0.00 | 0.00 | 81 | 1007.8 |
| 20260505124600 | 15 | 207 | 8.0 | 14.5 | 0.00 | 0.00 | 0.00 | 81 | 1007.8 |
| 20260505124026 | 15 | 205 | 9.7 | 19.3 | 0.00 | 0.00 | 0.00 | 81 | 1007.7 |
| 20260505123525 | 15 | 198 | 11.3 | 19.3 | 0.00 | 0.00 | 0.00 | 80 | 1007.7 |
| 20260505123059 | 15 | 225 | 11.3 | 19.3 | 0.00 | 0.00 | 0.00 | 81 | 1007.5 |
| 20260505122525 | 15 | 209 | 11.3 | 19.3 | 0.00 | 0.00 | 0.00 | 80 | 1007.6 |
| 20260505122025 | 15 | 216 | 11.3 | 22.5 | 0.00 | 0.00 | 0.00 | 80 | 1007.7 |
| 20260505121542 | 15 | 189 | 11.3 | 22.5 | 0.00 | 0.00 | 0.00 | 80 | 1007.5 |
| 20260505121029 | 15 | 222 | 12.9 | 24.1 | 0.00 | 0.00 | 0.00 | 79 | 1007.5 |
| 20260505120531 | 15 | 215 | 11.3 | 25.7 | 0.00 | 0.00 | 0.00 | 79 | 1007.4 |
| 20260505120053 | 15 | 205 | 14.5 | 43.5 | 0.00 | 0.00 | 0.00 | 78 | 1007.2 |
| 20260505115525 | 16 | 234 | 20.9 | 43.5 | 0.00 | 0.00 | 0.00 | 77 | 1006.8 |
| 20260505115025 | 16 | 202 | 16.1 | 30.6 | 0.00 | 0.00 | 0.00 | 76 | 1006.7 |
| 20260505114542 | 16 | 208 | 12.9 | 30.6 | 0.00 | 0.00 | 0.00 | 75 | 1006.7 |
| 20260505114028 | 16 | 246 | 12.9 | 30.6 | 0.00 | 0.00 | 0.00 | 75 | 1006.4 |
| 20260505113526 | 16 | 182 | 11.3 | 32.2 | 0.00 | 0.00 | 0.00 | 76 | 1006.2 |
| 20260505113049 | 15 | 200 | 12.9 | 32.2 | 0.00 | 0.00 | 0.00 | 77 | 1006.1 |